Regional Weather Roundup
Issued by NWS

Home | Current Version | Previous Version | Graphics & Text | Print | Product List | Glossary On
Versions: 1 2 3 4 5 6 7 8 9 10 11 12 13 14 15 16 17 18 19 20 21 22 23 24 25 26 27 28 29 30 31 32 33 34 35 36 37 38 39 40 41 42 43 44 45 46 47 48 49 50
720
ASUS43 KOAX 192210
RWRNE

WEATHER ROUNDUP FOR NEBRASKA
NATIONAL WEATHER SERVICE OMAHA NE
400 PM CST MON FEB 19 2018

NOTES: SATELLITE DATA IS BEING USED TO AUGMENT CLOUD COVER ABOVE
       12000 FEET.
       "FAIR" INDICATES FEW OR NO CLOUDS BELOW 12,000 FEET WITH NO
       SIGNIFICANT WEATHER AND/OR OBSTRUCTIONS TO VISIBILITY.


NEZ001>004-019>022-054>056-192300-
NEBRASKA PANHANDLE

CITY           SKY/WX    TMP DP  RH WIND       PRES   REMARKS
SCOTTSBLUFF    LGT SNOW   6  -1  73 NE17      29.75F WCI -13
ALLIANCE       LGT SNOW   4   0  83 N16       29.76F FOG     WCI -15
CHADRON        LGT SNOW   3  -3  76 NE17      29.87F WCI -17
GORDON         LGT SNOW   4  -3  72 N16       29.82F WCI -15
KIMBALL        LGT SNOW   6   1  80 NE12      29.65R WCI  -9
SIDNEY         LGT SNOW   8   3  80 NE15      29.70S WCI  -9
$$

NEZ057>060-069>072-079>082-192300-
SOUTHWEST NEBRASKA

CITY           SKY/WX    TMP DP  RH WIND       PRES   REMARKS
NORTH PLATTE   LGT SNOW  13   6  74 NE14      29.81R WCI  -2
IMPERIAL       FLURRIES  13   8  81 NE15      29.75S WCI  -3
LEXINGTON      LGT SNOW  16  11  80 N16       29.81F WCI   0
MCCOOK         LGT SNOW  17  11  77 N14       29.78F WCI   3
OGALLALA       LGT SNOW  13   9  83 N14       29.77F WCI  -2
$$

NEZ005>010-023>029-035>040-094-192300-
NORTH CENTRAL NEBRASKA

CITY           SKY/WX    TMP DP  RH WIND       PRES   REMARKS
VALENTINE      LGT SNOW   8   1  73 N16       29.89S WCI -10
AINSWORTH      CLOUDY     8   5  88 N23       29.85F FOG     WCI -13
BROKEN BOW     LGT SNOW  12   7  80 N17       29.83R WCI  -5
O`NEILL        LGT SNOW  12   9  87 N17G24    29.86F WCI  -5
ORD            LGT SNOW  13   9  84 N14       29.84S FOG     WCI  -2
THEDFORD       CLOUDY     9   5  85 N15G21    29.82S WCI  -8
$$

NEZ041-046>049-061>064-073>077-083>087-192300-
SOUTH CENTRAL NEBRASKA

CITY           SKY/WX    TMP DP  RH WIND       PRES   REMARKS
GRAND ISLAND   LGT SNOW  16  12  84 N17       29.84R FOG     WCI   0
AURORA         FLURRIES  17  12  81 N14       29.85R WCI   3
HASTINGS       LGT SNOW  17  12  80 N16       29.83S WCI   2
HEBRON         CLOUDY    22  18  83 N13       29.85R WCI  10
HOLDREGE       FLURRIES  17  13  87 N14       29.80F WCI   2
KEARNEY        FLURRIES  16  11  80 N20       29.83F WCI  -1
YORK           FLURRIES  18  18 100 N9        29.85R WCI   6
$$

NEZ011>018-030>034-042>045-192300-
NORTHEAST NEBRASKA

CITY           SKY/WX    TMP DP  RH WIND       PRES   REMARKS
NORFOLK        LGT SNOW  17  14  88 N6G17     29.84R FOG     WCI   9
ALBION         LGT SNOW  16  11  82 N14       29.84F WCI   1
BLAIR          CLOUDY    22  21  93 N7        29.83R WCI  14
COLUMBUS       FLURRIES  19  15  84 N16       29.85S WCI   4
FREMONT        CLOUDY    21  20  93 NW12      29.86R WCI  10
TEKAMAH        CLOUDY    21  19  92 N18       29.84R WCI   6
WAYNE          CLOUDY    19  18  96 N12       29.85R WCI   6
$$

NEZ050>053-065>068-078-088>093-192300-
SOUTHEAST NEBRASKA

CITY           SKY/WX    TMP DP  RH WIND       PRES   REMARKS
LINCOLN        FLURRIES  23  19  85 N17       29.85R WCI   9
OMAHA EPPLEY   FRZ DRZL  23  21  92 NW17      29.84R WCI   9
BEATRICE       CLOUDY    25  22  89 N13       29.83R WCI  13
FALLS CITY     CLOUDY    27  24  89 NW13      29.82R WCI  16
NEBRASKA CITY  CLOUDY    26  26 100 NW12      29.82R WCI  15
PLATTSMOUTH    CLOUDY    24  24  96 NW12      29.82R WCI  13
$$

NEZ044-045-051>053-067-192300-
OMAHA AREA

CITY           SKY/WX    TMP DP  RH WIND       PRES   REMARKS
OMAHA EPPLEY   FRZ DRZL  23  21  92 NW17      29.84R WCI   9
BLAIR          CLOUDY    22  21  93 N7        29.83R WCI  14
FREMONT        CLOUDY    21  20  93 NW12      29.86R WCI  10
MILLARD        CLOUDY    24  21  88 NW10      29.84R WCI  14
OFFUTT AFB     CLOUDY    24  21  90 NW9       29.82R WCI  14
PLATTSMOUTH    CLOUDY    24  24  96 NW12      29.82R WCI  13
WAHOO          CLOUDY    23  20  89 N12       29.84R WCI  11
$$




USA.gov is the U.S. government's official web portal to all federal, state and local government web resources and services.